Regional Weather Roundup
Issued by NWS Northern Indiana

Home | Current Version | Previous Version | Text Only | Print | Product List | Glossary On
Versions: 1 2 3 4 5 6 7 8 9 10 11 12 13 14 15 16 17 18 19 20 21 22 23 24 25 26 27 28 29 30 31 32 33 34 35 36 37 38 39 40 41 42 43 44 45 46 47 48 49 50
000
ASUS43 KIWX 220810
RWRIWX

KIWX WEATHER ROUNDUP
NATIONAL WEATHER SERVICE NORTHERN INDIANA
400 AM EDT WED OCT 22 2014

NOTE: "FAIR" INDICATES FEW OR NO CLOUDS BELOW 12,000 FEET WITH NO
SIGNIFICANT WEATHER AND/OR OBSTRUCTIONS TO VISIBILITY.

* THESE STATIONS ARE NOT UNDER NWS QUALITY CONTROL. THEY ALSO MAY NOT
  REPORT WEATHER SUCH AS PRECIPITATION OR FOG.

INZ001>027-220900-
NORTHERN INDIANA

CITY           SKY/WX    TMP DP  RH WIND       PRES   REMARKS
GARY*          CLEAR     35  34  96 CALM      30.28R FOG
VALPARAISO     CLEAR     36  34  92 CALM      30.27R
MICHIGAN CITY* CLEAR     32  32 100 CALM      30.29R
LAPORTE*       PTCLDY    35  35 100 NE5       30.28R WCI  31
KNOX*          CLEAR     33  32  96 CALM      30.27R
SOUTH BEND     CLEAR     35  32  88 CALM      30.28R
GOSHEN         CLEAR     36  33  89 N5        30.26R
MONTICELLO*    CLEAR     36  35  94 CALM      30.25S
LOGANSPORT*    CLEAR     36  34  93 N3        30.27R
ROCHESTER*     CLEAR     39  37  93 CALM      30.27R
WARSAW*        CLEAR     34  34 100 CALM      30.26S
ANGOLA*        PTCLDY    36  18  48 N3        30.25R
FORT WAYNE     PTCLDY    37  34  89 N6        30.25R
HUNTINGTON*    CLEAR     36  35  95 CALM      30.24R
PERU/GRISSOM   CLEAR     39  39  97 N6        30.25R
MARION*        CLEAR     38  34  84 N5        30.24S

$$
INZ028>050-220900-
CENTRAL INDIANA

CITY           SKY/WX    TMP DP  RH WIND       PRES   REMARKS
LAFAYETTE      CLEAR     36  35  96 NE3       30.26R
KOKOMO*        CLEAR     36  32  87 CALM      30.26R
MUNCIE*        CLOUDY    42  37  82 N5        30.23R
INDIANAPOLIS   CLEAR     42  34  73 N7        30.23R

$$
MIZ043>046-050>051-056>058-064>065-071>073-077>080-220900-
SOUTHWEST LOWER MICHIGAN

CITY           SKY/WX    TMP DP  RH WIND       PRES   REMARKS
BATTLE CREEK   CLEAR     34  31  88 N5        30.28R WCI  30
BENTON HARBOR  CLEAR     31  31 100 E5        30.29R WCI  26
COLDWATER*     CLEAR     37  35  92 N5        30.26R
HILLSDALE*     CLOUDY    40  37  91 NE8       30.24R
HOLLAND        CLEAR     35  31  85 CALM      30.30R
GRAND RAPIDS   CLEAR     32  29  88 NE3       30.29S
KALAMAZOO      CLEAR     32  30  92 N5        30.28R WCI  27
STURGIS*       CLEAR     34  34 100 N5        30.26R WCI  30
THREE RIVERS*  FAIR      34  32  94 CALM      30.28R FOG

$$
OHZ001>008-015>018-024>025-220900-
NORTHWEST OHIO

CITY           SKY/WX    TMP DP  RH WIND       PRES   REMARKS
WAUSEON*       CLOUDY    43  37  81 N8G15     30.23S
DEFIANCE       CLOUDY    44  36  73 N10       30.24R
FINDLAY        CLOUDY    44  38  79 NW9       30.20R
TOLEDO EXPRESS CLOUDY    44  37  76 NW10      30.22R
TOLEDO METCALF CLOUDY    46  37  71 N8        30.21S
LIMA           CLOUDY    44  37  76 N7        30.21R

$$
AND FOR LAKE MICHIGAN COASTAL AND OPEN LAKE BUOY OBSERVATIONS

STATION/POSITION TEMP    WIND        PRES    VSBY  WAVE
                 AIR SEA DIR/SP/G                  HT/PER
                 (F)     (DEG/KT/KT) (MB)    (MI)  (FT/S)
CALUMET HARBOR    45     220/  3/  5 1023.8R
MICHIGAN CITY     42     110/  6/  6   N/A
SAINT JOSEPH      37                 1026.1R
SOUTH LAKE BUOY   48 54  110/ 16/ 17 1025.6R         4/ 5

$$
&&



USA.gov is the U.S. government's official web portal to all federal, state and local government web resources and services.